www.pogodaiklimat.ru

Погода и климат >> Архив погоды >> Россия >> Хабаровский край >> Бичевая


ПОГОДА в Бичевой

  • Прогноз погоды в Бичевой
  • Монитор погоды в Бичевой

АРХИВ ПОГОДЫ в Бичевой

Время (UTC), дата Ветер
(напр.,м/с)
 
Видим.   Явления Облачность Т
(С)
Тd
(С)
f
(%)
Тe
(С)
Тes
(С)
Комфортность P
(гПа)
Po
(гПа)
Тmin
(С)
Tmax
(С)
R
(мм)
R24
(мм)
S
(см)
18 16.07 ЮЗ 1 50 км 7 баллов +16.3 +15.2 93 +17 +17 1012.4 1000.0
21 16.07 ЮЗ 1 50 км 10/6 600 м
[Sc Ac trans]
+17.8 +16.0 89 +19 +19 1010.2 998.0 +15.6
00 17.07 Ю 3 50 км 9/9 600 м
[Cu Sc]
+23.2 +17.6 71 +29 +30 душно 1010.8 998.7
03 17.07 Ю 3 50 км 5/3 600 м
[Cu hum Ac trans Ci fib]
+26.7 +16.9 55 +30 +38 душно 1007.9 996.0
06 17.07 З 1 50 км в посл. час ливневой дождь 9/9 600 м
[Cb cap]
+25.3 +18.5 66 +30 +31 душно 1006.6 994.7
09 17.07 Ю 3 50 км 6/0
[Ac As]
+24.3 +16.1 60 +28 +28 душно 1005.2 993.4 +27.7 0.7
12 17.07 Ю 1 50 км 10/10 600 м
[Sc]
+21.6 +16.8 74 +26 +26 душно 1006.8 994.7
15 17.07 Ю 3 50 км 10/10 600 м
[Sc]
+21.2 +16.8 76 +25 +25 комфорт 1005.4 993.3
18 17.07 Ю 1 н/о н/о +20.0 +17.9 88 +24 +24 комфорт 1005.4 993.3
21 17.07 Ю 3 50 км в посл. час ливневой дождь 9/9 600 м
[Cb cap]
+19.6 +18.2 92 +22 +22 комфорт 1004.4 992.4 +19.4 8
00 18.07 Ю 2 10 км слаб. ливневой дождь 10/10 300 м
[Cb cap]
+20.7 +18.2 86 +25 +25 комфорт 1004.2 992.2
03 18.07 Ю 2 10 км слаб. ливневой дождь 10/10 300 м
[Cb cap]
+21.7 +18.9 84 +27 +27 душно 1004.0 992.0
06 18.07 Ю 2 2000 м ливневой дождь 10 баллов +20.6 +19.3 92 +25 +25 комфорт 1004.1 992.0
09 18.07 Ю 3 20 км {ливн. осадки} 9/6 600 м
[Sc diur, vesp Ac cuf Ci ing]
+23.4 +19.7 80 +30 +30 очень
душно
1004.0 992.0 +23.7 76
12 18.07 Ю 1 50 км {ливн. осадки} 8/3 600 м
[Sc Ac lent Ci]
+20.9 +18.6 87 +26 +26 душно 1003.8 991.9
15 18.07 ЮЗ 1 50 км зарница 8/4 600 м
[Cb cap Cs]
+19.3 +18.0 92 +22 +22 комфорт 1004.1 992.0
18 18.07 штиль 0 50 км зарница 9/4 600 м
[Cb cap Cs]
+19.5 +18.2 92 +22 +22 комфорт 1004.1 992.0
21 18.07 штиль 0 4000 м туман местами 10/10 300 м
[St]
+19.8 +18.5 92 +22 +22 комфорт 1004.3 992.3 +18.4
00 19.07 Ю 3 50 км {гроза, ливн. осадки} 10/10 300 м
[Cb cap]
+21.0 +17.8 82 +26 +26 душно 1005.2 993.2
03 19.07 ЮЗ 2 10 км гроза, ливневой дождь 10/10 600 м
[Cb cap]
+19.4 +17.5 89 +22 +22 комфорт 1006.9 994.7
06 19.07 Ю 1 50 км {гроза, ливн. осадки} 10/3 600 м
[Sc Ac As]
+20.9 +18.3 85 +26 +26 душно 1006.8 994.7
09 19.07 Ю 1 50 км 8/0
[Ac trans]
+22.1 +18.9 82 +27 +28 душно 1008.1 996.0 +23.1 8
12 19.07 Ю 1 50 км 8/0
[Ac trans Ci fib]
+19.6 +17.4 87 +23 +23 комфорт 1009.5 997.3
15 19.07 ЮЗ 1 50 км ясно +17.3 +16.0 92 +18 +18 1009.6 997.3
18 19.07 З 1 500 м туман ясно +16.5 +15.4 93 +17 +17 1011.1 998.7
21 19.07 Ю 2 500 м туман ясно +17.3 +16.2 93 +18 +19 1010.6 998.4 +16.5
00 20.07 ЮВ 3 50 км {туман} ясно +23.4 +17.6 70 +29 +38 душно 1012.1 1000.0
03 20.07 В 2 50 км 8/1 1000 м
[Cu hum Ci fib]
+28.1 +18.2 55 +33 +38 очень
душно
1011.9 1000.0
06 20.07 З 1 50 км 4 балла +30.9 +17.2 44 +35 +42 очень
душно
1010.5 998.7
09 20.07 В 1 50 км 10/0
[Ci fib]
+29.2 +19.8 57 +35 +35 очень
душно
1009.1 997.3 +31.2
12 20.07 штиль 0 50 км 3/0
[Ci fib]
+21.5 +20.0 91 +27 +27 душно 1010.8 998.7
15 20.07 Ю 1 50 км ясно +19.0 +17.7 92 +22 +22 комфорт 1010.9 998.7
18 20.07 ЮЗ 1 50 км 6/0
[Cs]
+18.8 +17.1 90 +21 +21 комфорт 1010.9 998.7
21 20.07 ЮЗ 2 50 км 10/1 600 м
[Sc Ac trans Ci fib]
+20.1 +17.2 83 +24 +24 комфорт 1010.6 998.6 +18.5
00 21.07 Ю 2 50 км 5/1 600 м
[Sc Ci fib]
+25.4 +19.5 70 +31 +36 очень
душно
1012.0 1000.0
03 21.07 Ю 2 50 км 8/8 600 м
[Cu Sc]
+29.6 +21.5 62 +38 +43 очень
душно
1010.5 998.7
06 21.07 Ю 1 50 км 6/3 600 м
[Cu hum Ci fib]
+30.2 +21.8 61 +39 +44 очень
душно
1009.0 997.3
09 21.07 ЮВ 1 50 км 3/1 1000 м
[Cu hum Ci fib]
+30.7 +21.5 58 +39 +40 очень
душно
1007.7 996.0 +31.6
12 21.07 штиль 0 50 км 10/0
[Ac trans Cs]
+23.5 +21.9 91 +30 +30 очень
душно
1009.3 997.3
15 21.07 штиль 0
{11}
50 км в посл. час ливневой дождь 10/10 600 м
[Cb cap]
+21.5 +20.1 92 +27 +27 душно 1007.4 995.5
18 21.07 Ю 1 50 км {ливн. осадки} 10/10 600 м
[Sc]
+21.5 +20.0 91 +27 +27 душно 1006.8 994.7
21 21.07 ЮВ 1 50 км 1/0
[Ci fib]
+22.6 +20.5 88 +29 +31 очень
душно
1004.9 993.0 +21.1 2
00 22.07 Ю 2 50 км 2 балла +27.6 +19.1 60 +33 +42 очень
душно
1003.8 992.0
03 22.07 Ю 2 50 км 8/3 600 м
[Cu hum Ac lent Ci fib]
+30.5 +18.9 50 +36 +41 очень
душно
1002.4 990.7
06 22.07 ЮВ 2 50 км 10 баллов +26.7 +20.1 67 +33 +33 очень
душно
1001.1 989.3
09 22.07 ЮВ 3 4000 м слаб. ливневой дождь 10/10 600 м
[Cb cap]
+22.5 +19.4 83 +29 +29 очень
душно
999.7 987.9 +31.2 0.0
12 22.07 Ю 2 50 км в посл. час ливневой дождь 9/9 600 м
[Cb cap]
+21.1 +19.3 89 +26 +26 душно 999.9 988.0
15 22.07 Ю 2 20 км в посл. час ливневой дождь 10 баллов +20.8 +17.6 82 +25 +25 комфорт 1001.3 989.3
18 22.07 Ю 2 50 км 10 баллов +20.5 +16.9 80 +24 +24 комфорт 1001.4 989.3
21 22.07 Ю 3 50 км 10/10 300 м
[St]
+20.8 +17.0 79 +25 +25 комфорт 1000.0 988.1 +20.3 3
00 23.07 Ю 3 50 км 5 баллов +21.7 +18.7 83 +27 +31 душно 1001.3 989.3
03 23.07 Ю 3 50 км 7 баллов +25.5 +20.3 73 +31 +36 очень
душно
999.8 988.0
06 23.07 ЮЗ 1 10 км слаб. ливневой дождь 7 баллов +26.3 +20.8 72 +33 +37 очень
душно
999.8 988.0
09 23.07 Ю 2 50 км {ливн. осадки} 8/3 600 м
[Sc diur, vesp Ci fib]
+24.7 +20.6 78 +31 +31 очень
душно
999.8 988.0 +27.4 0.1
12 23.07 ЮЗ 1 50 км {ливн. осадки} 8/3 600 м
[Cb cap Ci fib]
+21.7 +20.0 90 +27 +27 душно 1000.2 988.3

 

Местоположение метеостанции Бичевая (Хабаровский край, Россия): широта 47.77 долгота 135.60 высота над уровнем моря 105 м.

В архиве по умолчанию представлена погода в Бичевой за последнюю неделю. Архивные данные за месяц целиком и за предыдущие месяцы, начиная с января 2011 года, Вы можете получить, выбрав интересующий диапазон дат из раскрывающегося списка и нажав кнопку "Ввод!".


*Определитесь, кто Вы:
робот инопланетянин человек

Внимание! Время в таблицах - всемирное. Для получения местного времени необходимо прибавить поправку, которая равна 10 ч.

Смотрите также архив погоды в соседних городах и на ближайших метеорологических станциях:

Погода в Оборе (Хабаровский край, Россия) (35 км)
Погода в Георгиевке (Хабаровский край, Россия) (36 км)
Погода в Гвасюгах (Хабаровский край, Россия) (39 км)
Погода в Хоре (Хабаровский край, Россия) (50 км)
Погода в Вяземском (Хабаровский край, Россия) (73 км)
Погода в Князе-Волконском (Хабаровский край, Россия) (80 км)
Погода в Хабаровске 21 км (Хабаровский край, Россия) (80 км)
Погода в Бычихе (Хабаровский край, Россия) (83 км)
Погода в Хабаровске Аэр. Большой (Хабаровский край, Россия) (83 км)
Погода в Хабаровске (Хабаровский край, Россия) (91 км)

Пояснения к столбцам:

Ветер - указаны скорость ветра в м/с - средняя за 10 мин, порывы в срок и между сроками (в фигурных скобках) и направление, откуда дует ветер: С - северный, СВ - северо-восточный, В - восточный, ЮВ - юго-восточный, Ю - южный, ЮЗ - юго-западный, З - западный, СЗ - северо-западный.
Видимость - горизонтальная дальность видимости в метрах или километрах. При видимости от 1 до 10 км при отсутствии осадков обычно наблюдается дымка, при ухудшении видимости до 1 км и менее - туман. В сухую погоду видимость может ухудшаться дымом, пылью или мглою.
Явления - указаны атмосферные явления, наблюдавшиеся в срок или в последний час перед сроком; фигурными скобками обозначены явления, наблюдавшиеся между сроками (за 1-3 часа до срока); квадратными скобками обозначены град или гололедные отложения с указанием их диаметра в мм.
Облачность - указаны через наклонную черту общая и нижняя облачность в баллах и высота нижней границы облаков в метрах; квадратными скобками обозначены формы облаков: Ci - перистые, Cs - перисто-слоистые, Cc - перисто-кучевые, Ac - высококучевые, As - высокослоистые, Sc - слоисто-кучевые, Ns - слоисто-дождевые, Cu - кучевые, Cb - кучево-дождевые. Подробнее классификацию облаков см. в Атласе облаков (PDF).
T - Температура воздуха - температура, измеренная на высоте 2 м над землей.
Td - Температура точки росы - температура, при понижении до которой содержащийся в воздухе водяной пар достигнет насыщения.
f - Относительная влажность воздуха - влажноcть воздуха, измеренная на высоте 2 м над землей.
Te - Эффективная температура - температура, которую ощущает одетый по сезону человек в тени. Характеристика душности погоды. При расчете учитывается влияние влажности воздуха и скорости ветра на теплоощущения человека.
Tes - Эффективная температура на солнце - температура, которую ощущает человек, с поправкой на солнечный нагрев. Характеристика знойности погоды. Зависит от высоты солнца над горизонтом, облачности и скорости ветра. Ночью, в пасмурную погоду, а также при ветре 12 м/с и более поправка равна нулю.
P - Атмосферное давление - приведенное к уровню моря атмосферное давление.
Po - Атмосферное давление - измеренное на уровне метеостанции атмосферное давление.
Tmin - Минимальная температура - минимум температуры воздуха на высоте 2 м над землей.
Tmax - Максимальная температура - максимум температуры воздуха на высоте 2 м над землей.
R - Количество осадков - Количество выпавших осадков за период времени, мм. При наведении курсора мыши на число - период времени, за который выпало указанное количество осадков.
R24 - Количество осадков - Количество выпавших осадков за 24 часа, мм.
S - Снежный покров - Высота снежного покрова, см. При наведении курсора мыши на число - состояние снежного покрова и степень покрытия местности в баллах.